User: anonymous   Login
Location: Unspecified
(0.0000°N, 0.0000°E)
Time: 00:29:32
(UTC+00:00)
Language:

SBSS (USA 216) - Orbit

View from above orbital plane
View from above orbital plane
View from above satellite
View from above satellite

Ground track
Ground track

The orbit data is extracted from the following two-line orbital elements,

1 37168U 10048A   20059.74077126  .00000025  00000-0  98935-5 0  9994
2 37168  97.9269 282.0097 0000704  64.2924  25.7560 14.81556210509412
Epoch (UTC): 28 February 2020 17:46:42
Eccentricity: 0.0000704
inclination: 97.9269°
perigee height: 624 km
apogee height: 625 km
right ascension of ascending node: 282.0097°
argument of perigee: 64.2924°
revolutions per day: 14.81556210
mean anomaly at epoch: 25.7560°
orbit number at epoch: 50941

The dashed part of the orbit path shows where the satellite is in the earth's shadow,  

DLR